This is the latest recevied weather packets stored in our database for station/object N0ZMJ-4. If no packets are shown the sender has not sent any weather packets the latest 10 day(s).
| Time | Temp. | Humidity | Pressure | Rain* | Wind** | Luminosity | Snow |
|---|---|---|---|---|---|---|---|
| 1777732803 | 12.22° C | 54% | 1016.5 hPa | 0 mm | - | - | - |
| 1777732503 | 12.22° C | 56% | 1016.6 hPa | 0 mm | - | - | - |
| 1777732203 | 11.67° C | 57% | 1016.5 hPa | 0 mm | - | - | - |
| 1777731903 | 11.67° C | 57% | 1016.4 hPa | 0 mm | - | - | - |
| 1777731603 | 11.11° C | 57% | 1016.5 hPa | 0 mm | - | - | - |
| 1777731303 | 11.11° C | 58% | 1016.5 hPa | 0 mm | - | - | - |
| 1777731003 | 10.56° C | 57% | 1016.5 hPa | 0 mm | - | - | - |
| 1777730703 | 10° C | 59% | 1016.5 hPa | 0 mm | - | - | - |
| 1777730403 | 10° C | 61% | 1016.6 hPa | 0 mm | - | - | - |
| 1777730103 | 9.44° C | 62% | 1016.6 hPa | 0 mm | - | - | - |
| 1777729803 | 9.44° C | 63% | 1016.6 hPa | 0 mm | - | - | - |
| 1777729503 | 8.89° C | 63% | 1016.8 hPa | 0 mm | - | - | - |
| 1777729203 | 8.89° C | 64% | 1016.7 hPa | 0 mm | - | - | - |
| 1777728903 | 8.33° C | 67% | 1016.9 hPa | 0 mm | - | - | - |
| 1777728603 | 7.78° C | 68% | 1016.8 hPa | 0 mm | - | - | - |
| 1777728303 | 7.78° C | 68% | 1016.9 hPa | 0 mm | - | - | - |
| 1777728003 | 7.22° C | 70% | 1017 hPa | 0 mm | - | - | - |
| 1777727702 | 6.67° C | 71% | 1017 hPa | 0 mm | - | - | - |
| 1777727403 | 6.11° C | 72% | 1017 hPa | 0 mm | - | - | - |
| 1777727103 | 5.56° C | 73% | 1017.1 hPa | 0 mm | - | - | - |
| 1777726803 | 5° C | 77% | 1017.3 hPa | 0 mm | - | - | - |
| 1777726503 | 4.44° C | 78% | 1017.1 hPa | 0 mm | - | - | - |
| 1777726203 | 3.89° C | 79% | 1017.1 hPa | 0 mm | - | - | - |
| 1777725903 | 3.89° C | 79% | 1017.1 hPa | 0 mm | - | - | - |
| 1777725604 | 3.33° C | 79% | 1017.3 hPa | 0 mm | - | - | - |
* Rain latest hour (hover to see other rain measurements)
** Current wind speed in m/s (hover to see current wind gust speed)